TimeCDT,TemperatureF,Dew PointF,Humidity,Sea Level PressureIn,VisibilityMPH,Wind Direction,Wind SpeedMPH,Gust SpeedMPH,PrecipitationIn,Events,Conditions,WindDirDegrees,DateUTC
12:15 AM,53.8,47.3,79,29.98,10.0,Calm,Calm,-,N/A,,Clear,0,2012-10-09 05:15:00
12:35 AM,52.9,47.1,81,29.98,10.0,NW,4.6,-,N/A,,Clear,310,2012-10-09 05:35:00
12:55 AM,51.4,46.6,83,29.98,10.0,NW,5.8,-,N/A,,Clear,310,2012-10-09 05:55:00
1:15 AM,51.8,46.8,83,29.98,10.0,Calm,Calm,-,N/A,,Clear,0,2012-10-09 06:15:00
1:35 AM,50.9,46.4,85,29.97,10.0,Calm,Calm,-,N/A,,Clear,0,2012-10-09 06:35:00
1:55 AM,50.4,46.4,86,29.97,10.0,Calm,Calm,-,N/A,,Clear,0,2012-10-09 06:55:00
2:15 AM,50.4,46.6,87,29.97,10.0,Calm,Calm,-,N/A,,Clear,0,2012-10-09 07:15:00
2:35 AM,50.0,45.9,86,29.97,10.0,Calm,Calm,-,N/A,,Clear,0,2012-10-09 07:35:00
2:55 AM,49.3,45.7,87,29.97,10.0,Calm,Calm,-,N/A,,Clear,0,2012-10-09 07:55:00
3:15 AM,49.5,46.0,88,29.96,10.0,Calm,Calm,-,N/A,,Clear,0,2012-10-09 08:15:00
3:35 AM,48.4,45.3,89,29.96,10.0,Calm,Calm,-,N/A,,Clear,0,2012-10-09 08:35:00
3:55 AM,48.2,45.1,89,29.96,10.0,Calm,Calm,-,N/A,,Clear,0,2012-10-09 08:55:00
4:15 AM,48.2,45.1,89,29.96,10.0,Calm,Calm,-,N/A,,Clear,0,2012-10-09 09:15:00
4:35 AM,48.2,44.8,88,29.96,10.0,Calm,Calm,-,N/A,,Clear,0,2012-10-09 09:35:00
4:55 AM,48.2,45.0,89,29.96,10.0,Calm,Calm,-,N/A,,Clear,0,2012-10-09 09:55:00
5:15 AM,48.6,45.1,88,29.96,10.0,Calm,Calm,-,N/A,,Clear,0,2012-10-09 10:15:00
5:35 AM,47.5,44.6,90,29.97,10.0,Calm,Calm,-,N/A,,Clear,0,2012-10-09 10:35:00
5:55 AM,46.6,43.9,90,29.97,10.0,Calm,Calm,-,N/A,,Clear,0,2012-10-09 10:55:00
6:15 AM,46.2,43.5,90,29.98,10.0,Calm,Calm,-,N/A,,Clear,0,2012-10-09 11:15:00
6:35 AM,46.4,43.9,91,29.98,10.0,Calm,Calm,-,N/A,,Clear,0,2012-10-09 11:35:00
6:55 AM,46.4,43.9,91,29.98,10.0,Calm,Calm,-,N/A,,Clear,0,2012-10-09 11:55:00
7:15 AM,46.6,44.1,91,29.99,10.0,Calm,Calm,-,N/A,,Clear,0,2012-10-09 12:15:00
7:35 AM,46.2,43.5,90,29.99,10.0,Calm,Calm,-,N/A,,Clear,0,2012-10-09 12:35:00
7:55 AM,45.5,42.8,90,29.99,10.0,Calm,Calm,-,N/A,,Clear,0,2012-10-09 12:55:00
8:15 AM,45.5,43.0,91,30.00,10.0,Calm,Calm,-,N/A,,Clear,0,2012-10-09 13:15:00
8:35 AM,46.8,44.2,91,30.00,10.0,Calm,Calm,-,N/A,,Clear,0,2012-10-09 13:35:00
8:55 AM,49.3,46.4,90,30.00,10.0,Calm,Calm,-,N/A,,Clear,0,2012-10-09 13:55:00
9:15 AM,51.1,46.9,86,30.02,10.0,Calm,Calm,-,N/A,,Clear,0,2012-10-09 14:15:00
9:35 AM,53.2,48.2,83,30.02,10.0,Calm,Calm,-,N/A,,Clear,0,2012-10-09 14:35:00
9:55 AM,54.7,49.1,81,30.02,10.0,Calm,Calm,-,N/A,,Clear,0,2012-10-09 14:55:00
10:15 AM,57.4,49.8,76,30.03,10.0,Calm,Calm,-,N/A,,Clear,0,2012-10-09 15:15:00
10:35 AM,60.1,50.2,70,30.02,10.0,Calm,Calm,-,N/A,,Clear,0,2012-10-09 15:35:00
10:55 AM,62.8,50.7,65,30.03,10.0,Calm,Calm,-,N/A,,Clear,0,2012-10-09 15:55:00
11:15 AM,65.5,49.8,57,30.02,10.0,Calm,Calm,-,N/A,,Clear,0,2012-10-09 16:15:00
11:55 AM,70.9,50.2,48,30.01,10.0,Calm,Calm,-,N/A,,Clear,0,2012-10-09 16:55:00
12:35 PM,75.2,50.5,42,30.00,10.0,NNE,3.5,-,N/A,,Clear,30,2012-10-09 17:35:00
1:35 PM,82.6,48.2,30,29.97,10.0,NNE,3.5,-,N/A,,Clear,30,2012-10-09 18:35:00
1:55 PM,84.2,46.9,27,29.96,10.0,Calm,Calm,-,N/A,,Clear,0,2012-10-09 18:55:00
2:15 PM,86.7,44.4,23,29.95,10.0,NE,3.5,-,N/A,,Clear,40,2012-10-09 19:15:00
2:55 PM,89.2,41.5,19,29.93,10.0,ESE,3.5,-,N/A,,Clear,120,2012-10-09 19:55:00
3:15 PM,90.3,42.8,19,29.93,10.0,ESE,6.9,-,N/A,,Clear,110,2012-10-09 20:15:00
3:35 PM,89.4,43.0,20,29.93,10.0,Calm,Calm,-,N/A,,Clear,0,2012-10-09 20:35:00
3:55 PM,90.7,30.9,12,29.92,10.0,WSW,3.5,-,N/A,,Clear,250,2012-10-09 20:55:00
4:15 PM,91.4,32.0,12,29.92,10.0,SW,10.4,-,N/A,,Clear,230,2012-10-09 21:15:00
4:35 PM,91.4,32.2,12,29.91,10.0,WSW,11.5,-,N/A,,Clear,240,2012-10-09 21:35:00
4:55 PM,91.4,32.0,12,29.91,10.0,SW,10.4,16.1,N/A,,Clear,230,2012-10-09 21:55:00
5:15 PM,90.7,32.5,13,29.91,10.0,SW,11.5,18.4,N/A,,Clear,230,2012-10-09 22:15:00
5:35 PM,90.5,32.7,13,29.91,10.0,WSW,9.2,-,N/A,,Clear,240,2012-10-09 22:35:00
5:55 PM,89.6,33.4,14,29.91,10.0,WSW,6.9,-,N/A,,Clear,240,2012-10-09 22:55:00
6:15 PM,89.1,33.4,14,29.91,10.0,WSW,8.1,-,N/A,,Clear,240,2012-10-09 23:15:00
7:15 PM,85.5,36.5,17,29.91,10.0,Calm,Calm,-,N/A,,Clear,0,2012-10-10 00:15:00
7:35 PM,81.9,42.4,25,29.91,10.0,Calm,Calm,-,N/A,,Clear,0,2012-10-10 00:35:00
7:55 PM,78.6,45.1,31,29.92,10.0,Calm,Calm,-,N/A,,Clear,0,2012-10-10 00:55:00
8:15 PM,76.5,44.1,31,29.92,10.0,Calm,Calm,-,N/A,,Clear,0,2012-10-10 01:15:00
8:35 PM,72.1,43.7,36,29.93,10.0,SE,4.6,-,N/A,,Clear,140,2012-10-10 01:35:00
8:55 PM,71.4,42.4,35,29.94,10.0,SE,8.1,-,N/A,,Clear,130,2012-10-10 01:55:00
9:15 PM,67.5,45.5,45,29.95,10.0,SE,4.6,-,N/A,,Clear,140,2012-10-10 02:15:00
9:35 PM,67.1,47.1,49,29.96,10.0,SSE,6.9,-,N/A,,Clear,160,2012-10-10 02:35:00
10:15 PM,65.3,50.4,58,29.96,10.0,South,4.6,-,N/A,,Clear,180,2012-10-10 03:15:00
10:35 PM,64.4,49.3,58,29.97,10.0,SSW,8.1,-,N/A,,Clear,210,2012-10-10 03:35:00
10:55 PM,63.1,49.5,61,29.98,10.0,South,5.8,-,N/A,,Clear,190,2012-10-10 03:55:00
11:15 PM,63.5,50.0,61,29.98,10.0,Calm,Calm,-,N/A,,Clear,0,2012-10-10 04:15:00
11:35 PM,62.6,50.0,63,29.98,10.0,Calm,Calm,-,N/A,,Clear,0,2012-10-10 04:35:00
11:55 PM,61.7,50.4,66,29.98,10.0,NNW,4.6,-,N/A,,Clear,330,2012-10-10 04:55:00